| time (UTC) | temp F | wind direction | speed knots | gust knots | rain 1hr in | rain 24hr in | rain mn in | humidity % | barometer mb |
| 20260504020054 | 49 | 298 | 5.2 | 10.4 | 0.00 | 0.00 | 0.00 | 59 | 1007.3 |
| 20260504014558 | 50 | 287 | 5.2 | 11.3 | 0.00 | 0.00 | 0.00 | 58 | 1007.3 |
| 20260504013054 | 50 | 269 | 3.5 | 10.4 | 0.00 | 0.00 | 0.00 | 57 | 1007.4 |
| 20260504011552 | 51 | 294 | 5.2 | 12.2 | 0.00 | 0.00 | 0.00 | 57 | 1007.4 |
| 20260504010100 | 50 | 296 | 5.2 | 9.6 | 0.00 | 0.00 | 0.00 | 59 | 1007.4 |
| 20260504004553 | 50 | 292 | 3.5 | 11.3 | 0.00 | 0.00 | 0.00 | 59 | 1007.6 |
| 20260504003053 | 50 | 293 | 3.5 | 8.7 | 0.00 | 0.00 | 0.00 | 60 | 1007.6 |
| 20260504001550 | 49 | 292 | 3.5 | 9.6 | 0.00 | 0.00 | 0.00 | 61 | 1007.8 |
| 20260504000116 | 49 | 282 | 4.3 | 9.6 | 0.00 | 0.00 | 0.00 | 61 | 1007.7 |
| 20260503234557 | 49 | 281 | 2.6 | 8.7 | 0.00 | 0.00 | 0.00 | 61 | 1007.8 |
| 20260503233051 | 50 | 299 | 2.6 | 9.6 | 0.00 | 0.00 | 0.00 | 61 | 1007.8 |
| 20260503231555 | 50 | 327 | 4.3 | 10.4 | 0.00 | 0.00 | 0.00 | 60 | 1007.9 |
| 20260503230051 | 50 | 275 | 2.6 | 8.7 | 0.00 | 0.00 | 0.00 | 60 | 1008.0 |
| 20260503224552 | 50 | 317 | 2.6 | 7.8 | 0.00 | 0.00 | 0.00 | 60 | 1008.0 |
| 20260503223051 | 51 | 341 | 4.3 | 8.7 | 0.00 | 0.00 | 0.00 | 58 | 1008.0 |
| 20260503221558 | 51 | 251 | 2.6 | 7.8 | 0.00 | 0.00 | 0.00 | 57 | 1008.1 |
| 20260503220050 | 52 | 0 | 2.6 | 8.7 | 0.00 | 0.00 | 0.00 | 55 | 1008.2 |
| 20260503214550 | 52 | 277 | 2.6 | 7.8 | 0.00 | 0.00 | 0.00 | 54 | 1008.3 |
| 20260503213105 | 53 | 288 | 2.6 | 7.8 | 0.00 | 0.00 | 0.00 | 53 | 1008.5 |
| 20260503211544 | 53 | 304 | 2.6 | 7.0 | 0.00 | 0.00 | 0.00 | 54 | 1008.6 |
| 20260503210049 | 53 | 282 | 2.6 | 7.0 | 0.00 | 0.00 | 0.00 | 53 | 1008.7 |
| 20260503204551 | 54 | 294 | 2.6 | 7.0 | 0.00 | 0.00 | 0.00 | 52 | 1008.8 |
| 20260503203106 | 54 | 293 | 2.6 | 6.1 | 0.00 | 0.00 | 0.00 | 52 | 1008.8 |
| 20260503201548 | 54 | 271 | 0.0 | 5.2 | 0.00 | 0.00 | 0.00 | 51 | 1009.0 |
| 20260503200051 | 54 | 0 | 0.0 | 5.2 | 0.00 | 0.00 | 0.00 | 52 | 1009.2 |
| 20260503194555 | 54 | 211 | 0.0 | 4.3 | 0.00 | 0.00 | 0.00 | 51 | 1009.1 |
| 20260503193051 | 54 | 202 | 0.0 | 1.7 | 0.00 | 0.00 | 0.00 | 51 | 1009.3 |
| 20260503191547 | 55 | 202 | 0.9 | 2.6 | 0.00 | 0.00 | 0.00 | 51 | 1009.4 |
| 20260503190050 | 54 | 202 | 0.9 | 2.6 | 0.00 | 0.00 | 0.00 | 51 | 1009.3 |
| 20260503184546 | 54 | 202 | 0.9 | 2.6 | 0.00 | 0.00 | 0.00 | 52 | 1009.3 |
| 20260503183048 | 55 | 202 | 0.9 | 2.6 | 0.00 | 0.00 | 0.00 | 51 | 1009.3 |
| 20260503181559 | 55 | 201 | 0.0 | 1.7 | 0.00 | 0.00 | 0.00 | 51 | 1009.3 |
| 20260503180048 | 55 | 0 | 0.0 | 1.7 | 0.00 | 0.00 | 0.00 | 46 | 1009.1 |
| 20260503174547 | 56 | 0 | 0.0 | 2.6 | 0.00 | 0.00 | 0.00 | 45 | 1009.1 |
| 20260503173057 | 56 | 202 | 0.9 | 2.6 | 0.00 | 0.00 | 0.00 | 44 | 1008.9 |
| 20260503171549 | 57 | 202 | 1.7 | 3.5 | 0.00 | 0.00 | 0.00 | 44 | 1008.9 |
| 20260503081549 | 55 | 5 | 3.5 | 11.3 | 0.00 | 0.00 | 0.00 | 47 | 1012.6 |
| 20260503071600 | 53 | 124 | 5.2 | 12.2 | 0.00 | 0.00 | 0.00 | 48 | 1012.5 |
| 20260503060104 | 50 | 132 | 3.5 | 10.4 | 0.00 | 0.00 | 0.00 | 58 | 1012.5 |
| 20260503054547 | 49 | 41 | 3.5 | 8.7 | 0.00 | 0.00 | 0.00 | 60 | 1012.4 |
| 20260503053053 | 48 | 83 | 3.5 | 7.0 | 0.00 | 0.00 | 0.00 | 62 | 1012.3 |
| 20260503051550 | 47 | 36 | 1.7 | 8.7 | 0.00 | 0.00 | 0.00 | 64 | 1012.3 |
| 20260503050055 | 46 | 61 | 1.7 | 7.8 | 0.00 | 0.00 | 0.00 | 67 | 1012.3 |
| 20260503044551 | 46 | 92 | 1.7 | 6.1 | 0.00 | 0.00 | 0.00 | 69 | 1012.1 |
| 20260503043055 | 45 | 81 | 1.7 | 5.2 | 0.00 | 0.00 | 0.00 | 71 | 1012.0 |
| 20260503041550 | 44 | 58 | 1.7 | 6.1 | 0.00 | 0.00 | 0.00 | 73 | 1012.0 |
| 20260503040052 | 43 | 42 | 0.9 | 3.5 | 0.00 | 0.00 | 0.00 | 76 | 1011.9 |
| 20260503034551 | 42 | 35 | 0.9 | 4.3 | 0.00 | 0.00 | 0.00 | 76 | 1011.8 |
| 20260503033104 | 42 | 36 | 0.9 | 3.5 | 0.00 | 0.00 | 0.00 | 77 | 1011.7 |
| 20260503031545 | 42 | 0 | 1.7 | 4.3 | 0.00 | 0.00 | 0.00 | 76 | 1011.6 |
| 20260503030048 | 42 | 40 | 1.7 | 4.3 | 0.00 | 0.00 | 0.00 | 76 | 1011.4 |
| 20260503024552 | 42 | 24 | 1.7 | 7.0 | 0.00 | 0.00 | 0.00 | 75 | 1011.5 |
| 20260503023100 | 42 | 69 | 1.7 | 4.3 | 0.00 | 0.00 | 0.00 | 75 | 1011.3 |
| 20260503021551 | 42 | 69 | 1.7 | 7.0 | 0.00 | 0.00 | 0.00 | 75 | 1011.2 |